Edinburgh Airport, United Kingdom

7:36 AM BST on September 25, 2017 (GMT +0100)
Edinburgh Airport

Weather History for EGPH - June, 2013

Change the Weather History Date:

Friday, June 7, 2013

  Actual Average Record
Temperature  
Mean Temperature 50 °F -  
Max Temperature 59 °F 64 °F 68 °F (1997)
Min Temperature 41 °F 49 °F 39 °F (2005)
Degree Days  
Heating Degree Days 15    
Moisture  
Dew Point 47 °F    
Average Humidity 89    
Maximum Humidity 100    
Minimum Humidity 72    
Precipitation  
Precipitation 0.00 in 0.07 in - ()
Sea Level Pressure  
Sea Level Pressure 30.32 in    
Wind  
Wind Speed 4 mph ()    
Max Wind Speed 13 mph    
Max Gust Speed -    
Visibility 6.0 miles    
Events Fog    
Averages and records for this station are not official NWS values.
T = Trace of Precipitation, MM = Missing Value Source: Averaged Metar Reports

Daily Weather History Graph

Daily Weather History Graph

Search for Another Location

Airport or City:

Trip Planner

Search our weather history database for the weather conditions in past years. The results will help you decide how hot, cold, wet, or windy it might be!

Date:

Astronomy

Jun. 07, 2013 Rise Set
Actual Time 4:30 AM BST 9:54 PM BST
Civil Twilight 3:30 AM BST 10:54 PM BST
Nautical Twilight 1:44 AM BST 12:39 AM BST
Astronomical Twilight Sun does not set Sun does not set
Moon 4:00 AM BST (6/7) 8:42 PM BST (6/7)
Length of Visible Light 19h 24m
Length of Day
17h 24m
Waning Crescent, 1% of the Moon is Illuminated
Jun 7
Waning Crescent
Jun 8
New
Jun 16
First Quarter
Jun 23
Full
Jun 30
Last Quarter

Hourly Weather History & Observations

Time (BST) Temp. Windchill Dew Point Humidity Pressure Visibility Wind Dir Wind Speed Gust Speed Precip Events Conditions
12:20 AM 50.0 °F - 48.2 °F 94% 30.27 in - WNW 3.5 mph - N/A   Clear
12:50 AM 46.4 °F 45.2 °F 46.4 °F 100% 30.27 in 6.2 mi WSW 3.5 mph - N/A   Partly Cloudy
1:20 AM 46.4 °F 44.3 °F 46.4 °F 100% 30.27 in 6.2 mi WSW 4.6 mph - N/A   Partly Cloudy
1:50 AM 44.6 °F - 44.6 °F 100% 30.30 in 6.2 mi Calm Calm - N/A   Partly Cloudy
2:20 AM 44.6 °F - 42.8 °F 93% 30.30 in 6.2 mi Calm Calm - N/A   Partly Cloudy
2:50 AM 42.8 °F - 42.8 °F 100% 30.27 in 6.2 mi Calm Calm - N/A Fog Unknown
3:20 AM 42.8 °F - 42.8 °F 100% 30.27 in 6.2 mi Calm Calm - N/A Fog Unknown
3:50 AM 42.8 °F 41.1 °F 42.8 °F 100% 30.30 in 6.2 mi WSW 3.5 mph - N/A Fog Shallow Fog
4:20 AM 41.0 °F - 41.0 °F 100% 30.30 in 6.2 mi Calm Calm - N/A Fog Shallow Fog
4:50 AM 41.0 °F - 41.0 °F 100% 30.30 in 6.2 mi Calm Calm - N/A Fog Shallow Fog
5:20 AM 41.0 °F - 41.0 °F 100% 30.30 in 0.7 mi Calm Calm - N/A   Mist
5:50 AM 42.8 °F - 42.8 °F 100% 30.30 in 6.2 mi Calm Calm - N/A Fog Shallow Fog
6:20 AM 44.6 °F - 44.6 °F 100% 30.30 in 6.2 mi Calm Calm - N/A   Partly Cloudy
6:50 AM 46.4 °F - 46.4 °F 100% 30.30 in 5.0 mi Calm Calm - N/A   Overcast
7:20 AM 48.2 °F - 48.2 °F 100% 30.30 in 6.2 mi Calm Calm - N/A   Mostly Cloudy
7:50 AM 51.8 °F - 50.0 °F 94% 30.33 in 6.2 mi Calm Calm - N/A   Scattered Clouds
8:20 AM 53.6 °F - 50.0 °F 88% 30.33 in 6.2 mi Variable 3.5 mph - N/A   Mostly Cloudy
8:50 AM 53.6 °F - 48.2 °F 82% 30.33 in 6.2 mi ENE 8.1 mph - N/A   Mostly Cloudy
9:20 AM 53.6 °F - 48.2 °F 82% 30.33 in 6.2 mi ENE 8.1 mph - N/A   Mostly Cloudy
9:50 AM 53.6 °F - 48.2 °F 82% 30.33 in 6.2 mi ENE 8.1 mph - N/A   Mostly Cloudy
10:20 AM 53.6 °F - 50.0 °F 88% 30.33 in 6.2 mi East 8.1 mph - N/A   Mostly Cloudy
10:50 AM 53.6 °F - 50.0 °F 88% 30.33 in 6.2 mi East 6.9 mph - N/A   Mostly Cloudy
11:20 AM 53.6 °F - 50.0 °F 88% 30.33 in 6.2 mi NE 8.1 mph - N/A   Overcast
11:50 AM 55.4 °F - 50.0 °F 82% 30.33 in 6.2 mi ENE 6.9 mph - N/A   Mostly Cloudy
12:20 PM 55.4 °F - 50.0 °F 82% 30.33 in 6.2 mi ENE 10.4 mph - N/A   Mostly Cloudy
12:50 PM 55.4 °F - 50.0 °F 82% 30.36 in 6.2 mi NE 10.4 mph - N/A   Mostly Cloudy
1:20 PM 57.2 °F - 50.0 °F 77% 30.36 in 6.2 mi ENE 10.4 mph - N/A   Mostly Cloudy
1:50 PM 55.4 °F - 50.0 °F 82% 30.36 in 6.2 mi ENE 12.7 mph - N/A   Mostly Cloudy
2:20 PM 55.4 °F - 50.0 °F 82% 30.36 in 6.2 mi NE 11.5 mph - N/A   Overcast
2:50 PM 55.4 °F - 50.0 °F 82% 30.36 in 6.2 mi ENE 12.7 mph - N/A   Overcast
3:20 PM 55.4 °F - 51.8 °F 88% 30.36 in 6.2 mi ENE 10.4 mph - N/A   Mostly Cloudy
3:50 PM 55.4 °F - 50.0 °F 82% 30.33 in 6.2 mi NE 11.5 mph - N/A   Mostly Cloudy
4:20 PM 55.4 °F - 50.0 °F 82% 30.33 in 6.2 mi ENE 11.5 mph - N/A   Mostly Cloudy
4:50 PM 59.0 °F - 50.0 °F 72% 30.33 in 6.2 mi NE 10.4 mph - N/A   Partly Cloudy
5:20 PM 57.2 °F - 50.0 °F 77% 30.33 in 6.2 mi NE 11.5 mph - N/A   Partly Cloudy
5:50 PM 57.2 °F - 50.0 °F 77% 30.33 in 6.2 mi NE 12.7 mph - N/A   Partly Cloudy
6:20 PM 55.4 °F - 48.2 °F 77% 30.33 in 6.2 mi NE 12.7 mph - N/A   Unknown
6:50 PM 55.4 °F - 48.2 °F 77% 30.33 in 6.2 mi NE 10.4 mph - N/A   Partly Cloudy
7:20 PM 55.4 °F - 48.2 °F 77% 30.33 in 6.2 mi NE 10.4 mph - N/A   Partly Cloudy
7:50 PM 53.6 °F - 48.2 °F 82% 30.33 in - NE 10.4 mph - N/A   Clear
8:20 PM 53.6 °F - 46.4 °F 77% 30.33 in - NE 11.5 mph - N/A   Clear
8:50 PM 51.8 °F - 46.4 °F 82% 30.33 in - NE 10.4 mph - N/A   Clear
9:20 PM 50.0 °F - 46.4 °F 87% 30.33 in - NE 8.1 mph - N/A   Clear
9:50 PM 50.0 °F - 46.4 °F 87% 30.33 in - NE 8.1 mph - N/A   Clear
10:20 PM 48.2 °F - 46.4 °F 93% 30.33 in 6.2 mi Calm Calm - N/A   Unknown
10:50 PM 48.2 °F - 46.4 °F 93% 30.33 in 6.2 mi Calm Calm - N/A   Unknown
11:20 PM 48.2 °F - 48.2 °F 100% 30.33 in 6.2 mi Variable 2.3 mph - N/A   Unknown
11:50 PM 46.4 °F 44.3 °F 44.6 °F 93% 30.33 in 6.2 mi NE 4.6 mph - N/A   Unknown